Barcelona, Spain

4:20 AM CEST on July 23, 2017 (GMT +0200)
El Prat

Weather History for LEBL - January, 2013

Change the Weather History Date:

Tuesday, January 22, 2013

  Actual Average Record
Temperature  
Mean Temperature 48 °F -  
Max Temperature 54 °F 55 °F 64 °F (2003)
Min Temperature 41 °F 41 °F 32 °F (2011)
Degree Days  
Heating Degree Days 18    
Moisture  
Dew Point 33 °F    
Average Humidity 57    
Maximum Humidity 87    
Minimum Humidity 27    
Precipitation  
Precipitation 0.59 in 0.05 in - ()
Sea Level Pressure  
Sea Level Pressure 29.72 in    
Wind  
Wind Speed 7 mph ()    
Max Wind Speed 22 mph    
Max Gust Speed -    
Visibility 6.8 miles    
Events Rain    
Averages and records for this station are not official NWS values.
T = Trace of Precipitation, MM = Missing Value Source: Averaged Metar Reports

Daily Weather History Graph

Daily Weather History Graph

Search for Another Location

Airport or City:

Trip Planner

Search our weather history database for the weather conditions in past years. The results will help you decide how hot, cold, wet, or windy it might be!

Date:

Astronomy

Jan. 22, 2013 Rise Set
Actual Time 8:11 AM CET 5:55 PM CET
Civil Twilight 7:41 AM CET 6:25 PM CET
Nautical Twilight 7:07 AM CET 6:59 PM CET
Astronomical Twilight 6:34 AM CET 7:32 PM CET
Moon 2:06 PM CET (1/22) 4:19 AM CET (1/22)
Length of Visible Light 10h 44m
Length of Day
9h 44m
Waxing Gibbous, 80% of the Moon is Illuminated
Jan 22
Waxing Gibbous
Jan 27
Full
Feb 3
Last Quarter
Feb 10
New
Feb 17
First Quarter

Hourly Weather History & Observations

Time (CET) Temp. Windchill Dew Point Humidity Pressure Visibility Wind Dir Wind Speed Gust Speed Precip Events Conditions
12:00 AM 48.2 °F - 30.2 °F 50% 29.80 in 6.2 mi NW 8.1 mph - N/A   Partly Cloudy
12:30 AM 46.4 °F 42.9 °F 30.2 °F 53% 29.80 in 6.2 mi NNW 6.9 mph - N/A   Partly Cloudy
1:00 AM 48.2 °F - 28.4 °F 46% 29.83 in 6.2 mi NNW 5.8 mph - N/A   Partly Cloudy
1:30 AM 46.4 °F 42.9 °F 30.2 °F 53% 29.83 in 6.2 mi North 6.9 mph - N/A   Partly Cloudy
2:00 AM 46.4 °F 42.4 °F 30.2 °F 53% 29.83 in 6.2 mi NNW 8.1 mph - N/A   Partly Cloudy
2:30 AM 44.6 °F 41.4 °F 30.2 °F 57% 29.83 in 6.2 mi NNW 5.8 mph - N/A   Partly Cloudy
3:00 AM 46.4 °F 44.3 °F 28.4 °F 50% 29.83 in 6.2 mi North 4.6 mph - N/A   Partly Cloudy
3:30 AM 46.4 °F 44.3 °F 28.4 °F 50% 29.83 in 6.2 mi NNW 4.6 mph - N/A   Partly Cloudy
4:00 AM 44.6 °F 40.2 °F 30.2 °F 57% 29.83 in 6.2 mi NNW 8.1 mph - N/A   Partly Cloudy
4:30 AM 44.6 °F 40.7 °F 30.2 °F 57% 29.80 in 6.2 mi NNW 6.9 mph - N/A   Partly Cloudy
5:00 AM 44.6 °F 40.2 °F 30.2 °F 57% 29.80 in 6.2 mi NNW 8.1 mph - N/A   Partly Cloudy
5:30 AM 44.6 °F 43.1 °F 30.2 °F 57% 29.80 in 6.2 mi SSE 3.5 mph - N/A   Partly Cloudy
6:00 AM 44.6 °F - 30.2 °F 57% 29.80 in 6.2 mi Variable 1.2 mph - N/A   Partly Cloudy
6:30 AM 44.6 °F 42.2 °F 30.2 °F 57% 29.80 in 6.2 mi NNW 4.6 mph - N/A   Partly Cloudy
7:00 AM 42 °F - 29 °F 49% 29.81 in 19 mi NNW 8.1 mph - -   Overcast
7:00 AM 42.8 °F 39.3 °F 32.0 °F 66% 29.80 in 6.2 mi NNW 5.8 mph - N/A   Partly Cloudy
7:30 AM 42.8 °F - 30.2 °F 61% 29.80 in 6.2 mi NNW 2.3 mph - N/A   Partly Cloudy
8:00 AM 42.8 °F 40.1 °F 30.2 °F 61% 29.80 in 6.2 mi NW 4.6 mph - N/A   Partly Cloudy
8:30 AM 42.8 °F 39.3 °F 30.2 °F 61% 29.80 in 6.2 mi NW 5.8 mph - N/A   Partly Cloudy
9:00 AM 41.0 °F 35.8 °F 32.0 °F 70% 29.80 in 6.2 mi NW 8.1 mph - N/A   Partly Cloudy
9:30 AM 42.8 °F 39.3 °F 32.0 °F 66% 29.80 in 6.2 mi WNW 5.8 mph - N/A   Partly Cloudy
10:00 AM 44.6 °F 40.7 °F 32.0 °F 61% 29.80 in 6.2 mi WNW 6.9 mph - N/A   Partly Cloudy
10:30 AM 50.0 °F - 32.0 °F 50% 29.80 in 6.2 mi West 3.5 mph - N/A   Partly Cloudy
11:00 AM 51.8 °F - 32.0 °F 47% 29.80 in 6.2 mi WSW 11.5 mph - N/A   Partly Cloudy
11:30 AM 51.8 °F - 30.2 °F 44% 29.80 in 6.2 mi SW 13.8 mph - N/A   Partly Cloudy
12:00 PM 53.6 °F - 32.0 °F 44% 29.77 in 6.2 mi SW 12.7 mph - N/A   Partly Cloudy
12:30 PM 53.6 °F - 30.2 °F 41% 29.74 in 6.2 mi SW 13.8 mph - N/A   Partly Cloudy
1:00 PM 54 °F - 30 °F 27% 29.74 in 19 mi SW 17.3 mph - -   Scattered Clouds
1:00 PM 53.6 °F - 32.0 °F 44% 29.74 in 6.2 mi SW 18.4 mph - N/A   Partly Cloudy
1:30 PM 53.6 °F - 32.0 °F 44% 29.71 in 6.2 mi SW 18.4 mph - N/A   Partly Cloudy
2:00 PM 53.6 °F - 30.2 °F 41% 29.71 in 6.2 mi SW 19.6 mph - N/A   Partly Cloudy
2:30 PM 53.6 °F - 32.0 °F 44% 29.68 in 6.2 mi WSW 19.6 mph - N/A   Partly Cloudy
3:00 PM 53.6 °F - 24.8 °F 33% 29.68 in 6.2 mi WSW 21.9 mph - N/A   Partly Cloudy
3:30 PM 53.6 °F - 30.2 °F 41% 29.68 in 6.2 mi WSW 18.4 mph - N/A   Partly Cloudy
4:00 PM 53.6 °F - 33.8 °F 47% 29.65 in 6.2 mi WSW 17.3 mph - N/A   Partly Cloudy
4:30 PM 53.6 °F - 35.6 °F 51% 29.65 in 6.2 mi WSW 18.4 mph - N/A   Partly Cloudy
5:00 PM 51.8 °F - 37.4 °F 58% 29.65 in 6.2 mi WSW 17.3 mph - N/A   Partly Cloudy
5:30 PM 51.8 °F - 37.4 °F 58% 29.62 in 6.2 mi West 10.4 mph - N/A   Partly Cloudy
6:00 PM 51.8 °F - 37.4 °F 58% 29.62 in 6.2 mi WNW 6.9 mph - N/A   Partly Cloudy
6:30 PM 51.8 °F - 37.4 °F 58% 29.59 in 6.2 mi West 4.6 mph - N/A   Partly Cloudy
7:00 PM 50 °F - 35 °F 45% 29.62 in 19 mi WNW 2.3 mph - -   Scattered Clouds
7:00 PM 51.8 °F - 35.6 °F 54% 29.59 in 6.2 mi WNW 4.6 mph - N/A   Partly Cloudy
7:30 PM 50.0 °F - 35.6 °F 58% 29.59 in 6.2 mi West 4.6 mph - N/A   Scattered Clouds
8:00 PM 50.0 °F - 37.4 °F 62% 29.59 in 6.2 mi WNW 1.2 mph - N/A Rain Light Rain Showers
8:30 PM 48.2 °F - 42.8 °F 82% 29.59 in 5.0 mi South 3.5 mph - N/A Rain Rain Showers
9:00 PM 48.2 °F - 42.8 °F 82% 29.56 in 5.0 mi Variable 1.2 mph - N/A Rain Light Rain
9:30 PM 46.4 °F 45.2 °F 42.8 °F 87% 29.56 in 5.0 mi North 3.5 mph - N/A Rain Light Rain
10:00 PM 46.4 °F 41.9 °F 41.0 °F 81% 29.53 in 5.0 mi NNW 9.2 mph - N/A Rain Heavy Rain
10:30 PM 46.4 °F 43.5 °F 42.8 °F 87% 29.50 in 5.0 mi North 5.8 mph - N/A Rain Rain
11:00 PM 46.4 °F 43.5 °F 41.0 °F 81% 29.53 in 5.0 mi NNW 5.8 mph - N/A Rain Rain
11:30 PM 44.6 °F 39.7 °F 41.0 °F 87% 29.53 in 5.0 mi NNW 9.2 mph - N/A Rain Rain